Regional Weather Roundup
Issued by NWS Lake Charles, LA

Home | Current Version | Previous Version | Text Only | Print | Product List | Glossary On
Versions: 1 2 3 4 5 6 7 8 9 10 11 12 13 14 15 16 17 18 19 20 21 22 23 24 25 26 27 28 29 30 31 32 33 34 35 36 37 38 39 40 41 42 43 44 45 46 47 48 49 50
000
ASUS44 KLCH 021510
RWRLCH
RWRLCH
REGIONAL WEATHER ROUNDUP
NATIONAL WEATHER SERVICE LAKE CHARLES LA
1000 AM CDT TUE JUN 02 2015

Note: "fair" indicates few or no clouds below 12,000 feet with no
significant weather and/or obstructions to visibility.


ACROSS SOUTHEAST TEXAS

CITY           SKY/WX    TMP DP  RH WIND       PRES   REMARKS
BEAUMONT       MOSUNNY   82  65  56 N3        30.03S
BEAUMONT CITY    N/A     79  69  71 N3        30.04F
ORANGE         SUNNY     79  64  58 CALM      30.05S
JASPER         SUNNY     79  71  76 CALM      30.07S
$$

ACROSS CENTRAL LOUISIANA

CITY           SKY/WX    TMP DP  RH WIND       PRES   REMARKS
LEESVILLE      SUNNY     77  68  75 VRB3      30.04S
FULLERTON        N/A     81  68  64 VRB3      30.03S
ALEXANDRIA INT SUNNY     77  67  71 E3        30.03F
ESLER FIELD    SUNNY     77  67  71 E5        30.05F
DERIDDER       CLOUDY    77  68  75 CALM      30.07R
OAKDALE        SUNNY     78  69  73 CALM      30.03F
OPELOUSAS        N/A     78  70  76 NE3       30.04S
$$

ACROSS SOUTHWEST AND SOUTH CENTRAL LOUISIANA

CITY           SKY/WX    TMP DP  RH WIND       PRES   REMARKS
SULPHUR        SUNNY     82  66  57 N3        30.04S
LAKE CHARLES   SUNNY     81  66  60 CALM      30.03S
CHENNAULT INT  MOSUNNY   79  68  69 CALM      30.03F
CAMERON PHI    SUNNY     79  68  69 CALM      30.06S
DEQUINCY         N/A     77  70  81 CALM      30.04S
JENNINGS         N/A     80  68  67 NE3       30.03S
LAFAYETTE      SUNNY     80  70  71 E5        30.03S
NEW IBERIA     SUNNY     82  71  69 E3        30.03S
ABBEVILLE        N/A     80  72  76 CALM      30.03S
PATTERSON      SUNNY     81  70  69 NE5       30.03S
SALT POINT       N/A     83  70  64 CALM      30.00S
$$

SELECTED SITES ACROSS THE REGION

CITY           SKY/WX    TMP DP  RH WIND       PRES   REMARKS
HOUSTON BUSH   MOSUNNY   80  66  62 CALM      30.04F
HOUSTON HOBBY  MOSUNNY   82  66  58 CALM      30.03F
GALVESTON      SUNNY     83  70  64 CALM      30.04F
COLLEGE STAT   SUNNY     80  67  64 VRB5      30.05F
CONROE         SUNNY     78  63  59 VRB3      30.06S
HUNTSVILLE     MOSUNNY   79  63  57 E3        30.06S
LUFKIN         SUNNY     79  67  66 CALM      30.06S
SHREVEPORT     MOSUNNY   76  64  66 SE5       30.07S
MONROE         SUNNY     76  66  71 E6        30.08S
NATCHEZ MS     CLOUDY    70  66  88 N6        30.08R
BATON ROUGE    SUNNY     82  67  60 NW3       30.03S
N.O. INTL ARPT MOSUNNY   82  70  66 N7        30.01F
SLIDELL        SUNNY     81  72  74 N5        30.01F
$$

MARINE REPORTS

STATION/POSITION TIME  TEMP    WIND        PRES    VSBY  WAVE
                       AIR SEA DIR/SP/G                  HT/PER
                 (UTC) (F)     (DEG/KT/KT) (MB)    (MI)  (FT/S)
BUOY 30 S HIGH I 1450   80 82   10/  4/  6 1016.6R         1
SEA RIM ST PARK  1500   81      20/  3/  5 1017.2F
PORT ARTHUR      1400      78   10/  4/  5 1017.1R
SABINE PASS N    1400   78 79   30/  5/  7 1017.1R
TEXAS POINT      NOT AVBL
CALCASIEU PASS   1400   78 83   20/  5/  5   N/A
LK CHARLES BEACH 1400   74 79              1017.2R
MARSH ISLAND     1400   80      50/  5/  6   N/A           0
FRESH WATER LOCK 1400   79 84   30/  4/  6   N/A
AMERADA PASS     1400   79 77   90/  2/  3 1016.2R
$$


USA.gov is the U.S. government's official web portal to all federal, state and local government web resources and services.